Location: Unspecified
(0.0000°N, 0.0000°E)
Time: 07:48:18
(UTC+00:00)

deb Delta 104 - Pass Details

Date: 12 March 2026
Orbit: 1402 x 1485 km, 102.0° (Epoch: 18 April)

Event Time Altitude Azimuth Distance (km) Brightness Sun altitude
Rises 05:30:14 0° 35° (NE) 4,566 ? -9.9°
Reaches altitude 10° 05:33:22 10° 44° (NE) 3,579 ? -9.1°
Maximum altitude 05:40:44 35° 107° (ESE) 2,159 ? -7.3°
Drops below altitude 10° 05:47:59 10° 169° (S) 3,534 ? -5.4°
Sets 05:51:01 0° 177° (S) 4,503 ? -4.7°
